Terug naar catalogus

STARLINK-37938

ActiefCommunicatieSSO
NORAD 69568·PAYLOAD·🇺🇸 United States

Gelanceerd Jun 15, 2026 vanaf Vandenberg Space Force Base

Loading…

Volgende Passages (komende 24 uur)

TLE

VersSource: CelesTrak SupGP

Epoch: Sep 15, 2026, 03:11 UTC

1 69568C 26135Y   26258.13312500 -.00050357  00000+0 -15632-2 0  2587
2 69568  97.2837 285.9619 0001489  99.1271 201.8838 15.33463836    16

Volg STARLINK-37938 in realtime met AllMySat

Download on the App Store